Year,Month,Day,Hour,Minute,Value (Times are PST for temperature in C)
2019,08,10,00,00,13.70
2019,08,10,00,01,13.70
2019,08,10,00,02,13.70
2019,08,10,00,03,13.70
2019,08,10,00,04,13.70
2019,08,10,00,05,13.70
2019,08,10,00,06,13.70
2019,08,10,00,07,13.70
2019,08,10,00,08,13.70
2019,08,10,00,09,13.70
2019,08,10,00,10,13.70
2019,08,10,00,11,13.70
2019,08,10,00,12,13.70
2019,08,10,00,13,13.70
2019,08,10,00,14,13.70
2019,08,10,00,15,13.60
2019,08,10,00,16,13.60
2019,08,10,00,17,13.60
2019,08,10,00,18,13.60
2019,08,10,00,19,13.60
2019,08,10,00,20,13.60
2019,08,10,00,21,13.60
2019,08,10,00,22,13.60
2019,08,10,00,23,13.60
2019,08,10,00,24,13.60
2019,08,10,00,25,13.60
2019,08,10,00,26,13.60
2019,08,10,00,27,13.60
2019,08,10,00,28,13.60
2019,08,10,00,29,13.60
2019,08,10,00,30,13.50
2019,08,10,00,31,13.50
2019,08,10,00,32,13.50
2019,08,10,00,33,13.50
2019,08,10,00,34,13.50
2019,08,10,00,35,13.40
2019,08,10,00,36,13.40
2019,08,10,00,37,13.40
2019,08,10,00,38,13.40
2019,08,10,00,39,13.40
2019,08,10,00,40,13.30
2019,08,10,00,41,13.30
2019,08,10,00,42,13.30
2019,08,10,00,43,13.30
2019,08,10,00,44,13.30
2019,08,10,00,45,13.30
2019,08,10,00,46,13.30
2019,08,10,00,47,13.30
2019,08,10,00,48,13.30
2019,08,10,00,49,13.30
2019,08,10,00,50,13.30
2019,08,10,00,51,13.20
2019,08,10,00,52,13.20
2019,08,10,00,53,13.20
2019,08,10,00,54,13.20
2019,08,10,00,55,13.20
2019,08,10,00,56,13.20
2019,08,10,00,57,13.20
2019,08,10,00,58,13.20
2019,08,10,00,59,13.20
2019,08,10,01,00,13.20
2019,08,10,01,01,13.20
2019,08,10,01,02,13.20
2019,08,10,01,03,13.20
2019,08,10,01,04,13.20
2019,08,10,01,05,13.20
2019,08,10,01,06,13.20
2019,08,10,01,07,13.20
2019,08,10,01,08,13.20
2019,08,10,01,09,13.20
2019,08,10,01,10,13.20
2019,08,10,01,11,13.20
2019,08,10,01,12,13.30
2019,08,10,01,13,13.30
2019,08,10,01,14,13.30
2019,08,10,01,15,13.30
2019,08,10,01,16,13.30
2019,08,10,01,17,13.30
2019,08,10,01,18,13.30
2019,08,10,01,19,13.30
2019,08,10,01,20,13.40
2019,08,10,01,21,13.40
2019,08,10,01,22,13.40
2019,08,10,01,23,13.40
2019,08,10,01,24,13.40
2019,08,10,01,25,13.40
2019,08,10,01,26,13.40
2019,08,10,01,27,13.50
2019,08,10,01,28,13.50
2019,08,10,01,29,13.50
2019,08,10,01,30,13.50
2019,08,10,01,31,13.50
2019,08,10,01,32,13.60
2019,08,10,01,33,13.60
2019,08,10,01,34,13.60
2019,08,10,01,35,13.60
2019,08,10,01,36,13.60
2019,08,10,01,37,13.70
2019,08,10,01,38,13.70
2019,08,10,01,39,13.70
2019,08,10,01,40,13.70
2019,08,10,01,41,13.70
2019,08,10,01,42,13.70
2019,08,10,01,43,13.70
2019,08,10,01,44,13.70
2019,08,10,01,45,13.80
2019,08,10,01,46,13.80
2019,08,10,01,47,13.80
2019,08,10,01,48,13.80
2019,08,10,01,49,13.80
2019,08,10,01,50,13.80
2019,08,10,01,51,13.80
2019,08,10,01,52,13.80
2019,08,10,01,53,13.80
2019,08,10,01,54,13.80
2019,08,10,01,55,13.80
2019,08,10,01,56,13.80
2019,08,10,01,57,13.80
2019,08,10,01,58,13.90
2019,08,10,01,59,13.90
2019,08,10,02,00,13.90
2019,08,10,02,01,13.90
2019,08,10,02,02,13.90
2019,08,10,02,03,13.90
2019,08,10,02,04,13.90
2019,08,10,02,05,13.90
2019,08,10,02,06,13.90
2019,08,10,02,07,13.90
2019,08,10,02,08,14.00
2019,08,10,02,09,13.90
2019,08,10,02,10,14.00
2019,08,10,02,11,14.00
2019,08,10,02,12,14.00
2019,08,10,02,13,14.00
2019,08,10,02,14,14.00
2019,08,10,02,15,14.10
2019,08,10,02,16,14.10
2019,08,10,02,17,14.10
2019,08,10,02,18,14.10
2019,08,10,02,19,14.10
2019,08,10,02,20,14.10
2019,08,10,02,21,14.10
2019,08,10,02,22,14.10
2019,08,10,02,23,14.10
2019,08,10,02,24,14.10
2019,08,10,02,25,14.10
2019,08,10,02,26,14.10
2019,08,10,02,27,14.10
2019,08,10,02,28,14.10
2019,08,10,02,29,14.10
2019,08,10,02,30,14.10
2019,08,10,02,31,14.20
2019,08,10,02,32,14.20
2019,08,10,02,33,14.20
2019,08,10,02,34,14.20
2019,08,10,02,35,14.20
2019,08,10,02,36,14.20
2019,08,10,02,37,14.20
2019,08,10,02,38,14.20
2019,08,10,02,39,14.20
2019,08,10,02,40,14.20
2019,08,10,02,41,14.20
2019,08,10,02,42,14.20
2019,08,10,02,43,14.30
2019,08,10,02,44,14.30
2019,08,10,02,45,14.30
2019,08,10,02,46,14.30
2019,08,10,02,47,14.30
2019,08,10,02,48,14.30
2019,08,10,02,49,14.30
2019,08,10,02,50,14.40
2019,08,10,02,51,14.40
2019,08,10,02,52,14.40
2019,08,10,02,53,14.40
2019,08,10,02,54,14.40
2019,08,10,02,55,14.40
2019,08,10,02,56,14.40
2019,08,10,02,57,14.50
2019,08,10,02,58,14.50
2019,08,10,02,59,14.50
2019,08,10,03,00,14.50
2019,08,10,03,01,14.50
2019,08,10,03,02,14.50
2019,08,10,03,03,14.50
2019,08,10,03,04,14.50
2019,08,10,03,05,14.50
2019,08,10,03,06,14.50
2019,08,10,03,07,14.50
2019,08,10,03,08,14.50
2019,08,10,03,09,14.50
2019,08,10,03,10,14.50
2019,08,10,03,11,14.50
2019,08,10,03,12,14.50
2019,08,10,03,13,14.50
2019,08,10,03,14,14.50
2019,08,10,03,15,14.50
2019,08,10,03,16,14.50
2019,08,10,03,17,14.50
2019,08,10,03,18,14.50
2019,08,10,03,19,14.50
2019,08,10,03,20,14.50
2019,08,10,03,21,14.50
2019,08,10,03,22,14.50
2019,08,10,03,23,14.50
2019,08,10,03,24,14.50
2019,08,10,03,25,14.50
2019,08,10,03,26,14.50
2019,08,10,03,27,14.50
2019,08,10,03,28,14.50
2019,08,10,03,29,14.50
2019,08,10,03,30,14.50
2019,08,10,03,31,14.50
2019,08,10,03,32,14.50
2019,08,10,03,33,14.50
2019,08,10,03,34,14.50
2019,08,10,03,35,14.50
2019,08,10,03,36,14.50
2019,08,10,03,37,14.60
2019,08,10,03,38,14.60
2019,08,10,03,39,14.60
2019,08,10,03,40,14.60
2019,08,10,03,41,14.60
2019,08,10,03,42,14.60
2019,08,10,03,43,14.60
2019,08,10,03,44,14.60
2019,08,10,03,45,14.60
2019,08,10,03,46,14.60
2019,08,10,03,47,14.60
2019,08,10,03,48,14.60
2019,08,10,03,49,14.50
2019,08,10,03,50,14.60
2019,08,10,03,51,14.50
2019,08,10,03,52,14.60
2019,08,10,03,53,14.50
2019,08,10,03,54,14.60
2019,08,10,03,55,14.60
2019,08,10,03,56,14.60
2019,08,10,03,57,14.60
2019,08,10,03,58,14.60
2019,08,10,03,59,14.60
2019,08,10,04,00,14.60
2019,08,10,04,01,14.60
2019,08,10,04,02,14.60
2019,08,10,04,03,14.60
2019,08,10,04,04,14.60
2019,08,10,04,05,14.60
2019,08,10,04,06,14.60
2019,08,10,04,07,14.60
2019,08,10,04,08,14.60
2019,08,10,04,09,14.60
2019,08,10,04,10,14.60
2019,08,10,04,11,14.60
2019,08,10,04,12,14.60
2019,08,10,04,13,14.60
2019,08,10,04,14,14.60
2019,08,10,04,15,14.60
2019,08,10,04,16,14.60
2019,08,10,04,17,14.60
2019,08,10,04,18,14.60
2019,08,10,04,19,14.60
2019,08,10,04,20,14.60
2019,08,10,04,21,14.60
2019,08,10,04,22,14.60
2019,08,10,04,23,14.60
2019,08,10,04,24,14.60
2019,08,10,04,25,14.60
2019,08,10,04,26,14.60
2019,08,10,04,27,14.60
2019,08,10,04,28,14.60
2019,08,10,04,29,14.60
2019,08,10,04,30,14.60
2019,08,10,04,31,14.60
2019,08,10,04,32,14.60
2019,08,10,04,33,14.60
2019,08,10,04,34,14.60
2019,08,10,04,35,14.60
2019,08,10,04,36,14.60
2019,08,10,04,37,14.60
2019,08,10,04,38,14.60
2019,08,10,04,39,14.60
2019,08,10,04,40,14.60
2019,08,10,04,41,14.60
2019,08,10,04,42,14.60
2019,08,10,04,43,14.60
2019,08,10,04,44,14.60
2019,08,10,04,45,14.60
2019,08,10,04,46,14.60
2019,08,10,04,47,14.60
2019,08,10,04,48,14.60
2019,08,10,04,49,14.60
2019,08,10,04,50,14.60
2019,08,10,04,51,14.60
2019,08,10,04,52,14.60
2019,08,10,04,53,14.60
2019,08,10,04,54,14.60
2019,08,10,04,55,14.60
2019,08,10,04,56,14.60
2019,08,10,04,57,14.60
2019,08,10,04,58,14.60
2019,08,10,04,59,14.60
2019,08,10,05,00,14.60
2019,08,10,05,01,14.60
2019,08,10,05,02,14.60
2019,08,10,05,03,14.50
2019,08,10,05,04,14.50
2019,08,10,05,05,14.50
2019,08,10,05,06,14.50
2019,08,10,05,07,14.50
2019,08,10,05,08,14.50
2019,08,10,05,09,14.50
2019,08,10,05,10,14.50
2019,08,10,05,11,14.50
2019,08,10,05,12,14.50
2019,08,10,05,13,14.50
2019,08,10,05,14,14.40
2019,08,10,05,15,14.40
2019,08,10,05,16,14.40
2019,08,10,05,17,14.40
2019,08,10,05,18,14.40
2019,08,10,05,19,14.40
2019,08,10,05,20,14.40
2019,08,10,05,21,14.40
2019,08,10,05,22,14.40
2019,08,10,05,23,14.40
2019,08,10,05,24,14.40
2019,08,10,05,25,14.40
2019,08,10,05,26,14.40
2019,08,10,05,27,14.40
2019,08,10,05,28,14.40
2019,08,10,05,29,14.40
2019,08,10,05,30,14.40
2019,08,10,05,31,14.40
2019,08,10,05,32,14.40
2019,08,10,05,33,14.40
2019,08,10,05,34,14.40
2019,08,10,05,35,14.40
2019,08,10,05,36,14.40
2019,08,10,05,37,14.40
2019,08,10,05,38,14.40
2019,08,10,05,39,14.40
2019,08,10,05,40,14.40
2019,08,10,05,41,14.40
2019,08,10,05,42,14.40
2019,08,10,05,43,14.40
2019,08,10,05,44,14.40
2019,08,10,05,45,14.40
2019,08,10,05,46,14.40
2019,08,10,05,47,14.40
2019,08,10,05,48,14.40
2019,08,10,05,49,14.40
2019,08,10,05,50,14.40
2019,08,10,05,51,14.40
2019,08,10,05,52,14.40
2019,08,10,05,53,14.40
2019,08,10,05,54,14.40
2019,08,10,05,55,14.40
2019,08,10,05,56,14.40
2019,08,10,05,57,14.40
2019,08,10,05,58,14.40
2019,08,10,05,59,14.40
2019,08,10,06,00,14.40
2019,08,10,06,01,14.40
2019,08,10,06,02,14.40
2019,08,10,06,03,14.40
2019,08,10,06,04,14.40
2019,08,10,06,05,14.40
2019,08,10,06,06,14.40
2019,08,10,06,07,14.40
2019,08,10,06,08,14.40
2019,08,10,06,09,14.40
2019,08,10,06,10,14.40
2019,08,10,06,11,14.40
2019,08,10,06,12,14.40
2019,08,10,06,13,14.40
2019,08,10,06,14,14.40
2019,08,10,06,15,14.40
2019,08,10,06,16,14.40
2019,08,10,06,17,14.40
2019,08,10,06,18,14.40
2019,08,10,06,19,14.40
2019,08,10,06,20,14.40
2019,08,10,06,21,14.40
2019,08,10,06,22,14.40
2019,08,10,06,23,14.40
2019,08,10,06,24,14.40
2019,08,10,06,25,14.40
2019,08,10,06,26,14.40
2019,08,10,06,27,14.40
2019,08,10,06,28,14.40
2019,08,10,06,29,14.40
2019,08,10,06,30,14.40
2019,08,10,06,31,14.40
2019,08,10,06,32,14.40
2019,08,10,06,33,14.40
2019,08,10,06,34,14.40
2019,08,10,06,35,14.40
2019,08,10,06,36,14.40
2019,08,10,06,37,14.40
2019,08,10,06,38,14.40
2019,08,10,06,39,14.50
2019,08,10,06,40,14.40
2019,08,10,06,41,14.50
2019,08,10,06,42,14.50
2019,08,10,06,43,14.50
2019,08,10,06,44,14.50
2019,08,10,06,45,14.50
2019,08,10,06,46,14.50
2019,08,10,06,47,14.50
2019,08,10,06,48,14.50
2019,08,10,06,49,14.50
2019,08,10,06,50,14.50
2019,08,10,06,51,14.50
2019,08,10,06,52,14.50
2019,08,10,06,53,14.50
2019,08,10,06,54,14.60
2019,08,10,06,55,14.60
2019,08,10,06,56,14.60
2019,08,10,06,57,14.60
2019,08,10,06,58,14.60
2019,08,10,06,59,14.60
2019,08,10,07,00,14.60
2019,08,10,07,01,14.60
2019,08,10,07,02,14.60
2019,08,10,07,03,14.60
2019,08,10,07,04,14.60
2019,08,10,07,05,14.60
2019,08,10,07,06,14.60
2019,08,10,07,07,14.70
2019,08,10,07,08,14.70
2019,08,10,07,09,14.70
2019,08,10,07,10,14.70
2019,08,10,07,11,14.70
2019,08,10,07,12,14.70
2019,08,10,07,13,14.70
2019,08,10,07,14,14.70
2019,08,10,07,15,14.70
2019,08,10,07,16,14.70
2019,08,10,07,17,14.70
2019,08,10,07,18,14.80
2019,08,10,07,19,14.80
2019,08,10,07,20,14.80
2019,08,10,07,21,14.80
2019,08,10,07,22,14.80
2019,08,10,07,23,14.80
2019,08,10,07,24,14.90
2019,08,10,07,25,14.90
2019,08,10,07,26,14.90
2019,08,10,07,27,14.90
2019,08,10,07,28,14.90
2019,08,10,07,29,14.90
2019,08,10,07,30,14.90
2019,08,10,07,31,14.90
2019,08,10,07,32,15.00
2019,08,10,07,33,15.00
2019,08,10,07,34,15.00
2019,08,10,07,35,15.00
2019,08,10,07,36,15.00
2019,08,10,07,37,15.00
2019,08,10,07,38,15.00
2019,08,10,07,39,15.10
2019,08,10,07,40,15.10
2019,08,10,07,41,15.10
2019,08,10,07,42,15.10
2019,08,10,07,43,15.10
2019,08,10,07,44,15.10
2019,08,10,07,45,15.10
2019,08,10,07,46,15.10
2019,08,10,07,47,15.10
2019,08,10,07,48,15.10
2019,08,10,07,49,15.10
2019,08,10,07,50,15.10
2019,08,10,07,51,15.10
2019,08,10,07,52,15.10
2019,08,10,07,53,15.10
2019,08,10,07,54,15.10
2019,08,10,07,55,15.10
2019,08,10,07,56,15.10
2019,08,10,07,57,15.10
2019,08,10,07,58,15.10
2019,08,10,07,59,15.10
2019,08,10,08,00,15.10
2019,08,10,08,01,15.10
2019,08,10,08,02,15.10
2019,08,10,08,03,15.10
2019,08,10,08,04,15.10
2019,08,10,08,05,15.10
2019,08,10,08,06,15.10
2019,08,10,08,07,15.10
2019,08,10,08,08,15.10
2019,08,10,08,09,15.00
2019,08,10,08,10,15.00
2019,08,10,08,11,15.00
2019,08,10,08,12,15.00
2019,08,10,08,13,15.00
2019,08,10,08,14,15.00
2019,08,10,08,15,14.90
2019,08,10,08,16,14.90
2019,08,10,08,17,15.00
2019,08,10,08,18,14.90
2019,08,10,08,19,14.90
2019,08,10,08,20,14.90
2019,08,10,08,21,14.90
2019,08,10,08,22,14.90
2019,08,10,08,23,14.90
2019,08,10,08,24,14.90
2019,08,10,08,25,14.90
2019,08,10,08,26,14.90
2019,08,10,08,27,14.90
2019,08,10,08,28,14.90
2019,08,10,08,29,14.80
2019,08,10,08,30,14.80
2019,08,10,08,31,14.80
2019,08,10,08,32,14.80
2019,08,10,08,33,14.80
2019,08,10,08,34,14.80
2019,08,10,08,35,14.80
2019,08,10,08,36,14.80
2019,08,10,08,37,14.80
2019,08,10,08,38,14.80
2019,08,10,08,39,14.80
2019,08,10,08,40,14.80
2019,08,10,08,41,14.90
2019,08,10,08,42,14.90
2019,08,10,08,43,14.90
2019,08,10,08,44,14.90
2019,08,10,08,45,14.90
2019,08,10,08,46,14.90
2019,08,10,08,47,15.00
2019,08,10,08,48,15.00
2019,08,10,08,49,15.00
2019,08,10,08,50,15.10
2019,08,10,08,51,15.10
2019,08,10,08,52,15.10
2019,08,10,08,53,15.20
2019,08,10,08,54,15.20
2019,08,10,08,55,15.20
2019,08,10,08,56,15.20
2019,08,10,08,57,15.20
2019,08,10,08,58,15.30
2019,08,10,08,59,15.30
2019,08,10,09,00,15.30
2019,08,10,09,01,15.30
2019,08,10,09,02,15.20
2019,08,10,09,03,15.20
2019,08,10,09,04,15.20
2019,08,10,09,05,15.20
2019,08,10,09,06,15.20
2019,08,10,09,07,15.30
2019,08,10,09,08,15.20
2019,08,10,09,09,15.20
2019,08,10,09,10,15.20
2019,08,10,09,11,15.20
2019,08,10,09,12,15.20
2019,08,10,09,13,15.20
2019,08,10,09,14,15.20
2019,08,10,09,15,15.20
2019,08,10,09,16,15.20
2019,08,10,09,17,15.20
2019,08,10,09,18,15.30
2019,08,10,09,19,15.30
2019,08,10,09,20,15.30
2019,08,10,09,21,15.30
2019,08,10,09,22,15.30
2019,08,10,09,23,15.30
2019,08,10,09,24,15.40
2019,08,10,09,25,15.40
2019,08,10,09,26,15.40
2019,08,10,09,27,15.50
2019,08,10,09,28,15.50
2019,08,10,09,29,15.60
2019,08,10,09,30,15.60
2019,08,10,09,31,15.70
2019,08,10,09,32,15.70
2019,08,10,09,33,15.80
2019,08,10,09,34,15.80
2019,08,10,09,35,15.80
2019,08,10,09,36,15.90
2019,08,10,09,37,15.90
2019,08,10,09,38,16.00
2019,08,10,09,39,16.10
2019,08,10,09,40,16.10
2019,08,10,09,41,16.10
2019,08,10,09,42,16.10
2019,08,10,09,43,16.20
2019,08,10,09,44,16.20
2019,08,10,09,45,16.20
2019,08,10,09,46,16.20
2019,08,10,09,47,16.20
2019,08,10,09,48,16.20
2019,08,10,09,49,16.20
2019,08,10,09,50,16.20
2019,08,10,09,51,16.20
2019,08,10,09,52,16.20
2019,08,10,09,53,16.20
2019,08,10,09,54,16.10
2019,08,10,09,55,16.10
2019,08,10,09,56,16.10
2019,08,10,09,57,16.10
2019,08,10,09,58,16.10
2019,08,10,09,59,16.10
2019,08,10,10,00,16.10
2019,08,10,10,01,16.20
2019,08,10,10,02,16.20
2019,08,10,10,03,16.20
2019,08,10,10,04,16.20
2019,08,10,10,05,16.20
2019,08,10,10,06,16.30
2019,08,10,10,07,16.30
2019,08,10,10,08,16.30
2019,08,10,10,09,16.30
2019,08,10,10,10,16.30
2019,08,10,10,11,16.40
2019,08,10,10,12,16.40
2019,08,10,10,13,16.40
2019,08,10,10,14,16.50
2019,08,10,10,15,16.50
2019,08,10,10,16,16.50
2019,08,10,10,17,16.60
2019,08,10,10,18,16.60
2019,08,10,10,19,16.70
2019,08,10,10,20,16.70
2019,08,10,10,21,16.70
2019,08,10,10,22,16.70
2019,08,10,10,23,16.70
2019,08,10,10,24,16.80
2019,08,10,10,25,16.80
2019,08,10,10,26,16.80
2019,08,10,10,27,16.80
2019,08,10,10,28,16.80
2019,08,10,10,29,16.90
2019,08,10,10,30,16.90
2019,08,10,10,31,16.90
2019,08,10,10,32,16.90
2019,08,10,10,33,16.90
2019,08,10,10,34,17.00
2019,08,10,10,35,17.00
2019,08,10,10,36,17.10
2019,08,10,10,37,17.10
2019,08,10,10,38,17.10
2019,08,10,10,39,17.20
2019,08,10,10,40,17.20
2019,08,10,10,41,17.20
2019,08,10,10,42,17.30
2019,08,10,10,43,17.30
2019,08,10,10,44,17.30
2019,08,10,10,45,17.30
2019,08,10,10,46,17.40
2019,08,10,10,47,17.40
2019,08,10,10,48,17.40
2019,08,10,10,49,17.50
2019,08,10,10,50,17.50
2019,08,10,10,51,17.60
2019,08,10,10,52,17.60
2019,08,10,10,53,17.60
2019,08,10,10,54,17.70
2019,08,10,10,55,17.70
2019,08,10,10,56,17.70
2019,08,10,10,57,17.70
2019,08,10,10,58,17.80
2019,08,10,10,59,17.80
2019,08,10,11,00,17.80
2019,08,10,11,01,17.80
2019,08,10,11,02,17.90
2019,08,10,11,03,17.90
2019,08,10,11,04,17.90
2019,08,10,11,05,18.00
2019,08,10,11,06,18.00
2019,08,10,11,07,18.00
2019,08,10,11,08,18.10
2019,08,10,11,09,18.10
2019,08,10,11,10,18.10
2019,08,10,11,11,18.10
2019,08,10,11,12,18.20
2019,08,10,11,13,18.20
2019,08,10,11,14,18.30
2019,08,10,11,15,18.30
2019,08,10,11,16,18.40
2019,08,10,11,17,18.50
2019,08,10,11,18,18.60
2019,08,10,11,19,18.70
2019,08,10,11,20,18.80
2019,08,10,11,21,18.90
2019,08,10,11,22,19.00
2019,08,10,11,23,19.10
2019,08,10,11,24,19.20
2019,08,10,11,25,19.30
2019,08,10,11,26,19.40
2019,08,10,11,27,19.50
2019,08,10,11,28,19.60
2019,08,10,11,29,19.70
2019,08,10,11,30,19.70
2019,08,10,11,31,19.80
2019,08,10,11,32,19.80
2019,08,10,11,33,19.90
2019,08,10,11,34,19.90
2019,08,10,11,35,19.80
2019,08,10,11,36,19.80
2019,08,10,11,37,19.80
2019,08,10,11,38,19.80
2019,08,10,11,39,19.80
2019,08,10,11,40,19.80
2019,08,10,11,41,19.70
2019,08,10,11,42,19.70
2019,08,10,11,43,19.70
2019,08,10,11,44,19.70
2019,08,10,11,45,19.70
2019,08,10,11,46,19.70
2019,08,10,11,47,19.60
2019,08,10,11,48,19.60
2019,08,10,11,49,19.60
2019,08,10,11,50,19.60
2019,08,10,11,51,19.50
2019,08,10,11,52,19.40
2019,08,10,11,53,19.40
2019,08,10,11,54,19.40
2019,08,10,11,55,19.30
2019,08,10,11,56,19.30
2019,08,10,11,57,19.30
2019,08,10,11,58,19.30
2019,08,10,11,59,19.30
2019,08,10,12,00,19.30
2019,08,10,12,01,19.20
2019,08,10,12,02,19.20
2019,08,10,12,03,19.20
2019,08,10,12,04,19.20
2019,08,10,12,05,19.20
2019,08,10,12,06,19.10
2019,08,10,12,07,19.10
2019,08,10,12,08,19.10
2019,08,10,12,09,19.00
2019,08,10,12,10,18.90
2019,08,10,12,11,18.90
2019,08,10,12,12,18.90
2019,08,10,12,13,18.90
2019,08,10,12,14,18.90
2019,08,10,12,15,18.90
2019,08,10,12,16,18.90
2019,08,10,12,17,18.90
2019,08,10,12,18,18.90
2019,08,10,12,19,19.00
2019,08,10,12,20,19.10
2019,08,10,12,21,19.10
2019,08,10,12,22,19.20
2019,08,10,12,23,19.20
2019,08,10,12,24,19.20
2019,08,10,12,25,19.20
2019,08,10,12,26,19.20
2019,08,10,12,27,19.10
2019,08,10,12,28,19.10
2019,08,10,12,29,19.10
2019,08,10,12,30,19.00
2019,08,10,12,31,19.00
2019,08,10,12,32,19.00
2019,08,10,12,33,18.90
2019,08,10,12,34,18.90
2019,08,10,12,35,18.90
2019,08,10,12,36,18.90
2019,08,10,12,37,18.90
2019,08,10,12,38,18.90
2019,08,10,12,39,18.90
2019,08,10,12,40,18.80
2019,08,10,12,41,18.80
2019,08,10,12,42,18.80
2019,08,10,12,43,18.80
2019,08,10,12,44,18.70
2019,08,10,12,45,18.70
2019,08,10,12,46,18.70
2019,08,10,12,47,18.70
2019,08,10,12,48,18.70
2019,08,10,12,49,18.70
2019,08,10,12,50,18.70
2019,08,10,12,51,18.70
2019,08,10,12,52,18.70
2019,08,10,12,53,18.70
2019,08,10,12,54,18.60
2019,08,10,12,55,18.60
2019,08,10,12,56,18.60
2019,08,10,12,57,18.60
2019,08,10,12,58,18.60
2019,08,10,12,59,18.50
2019,08,10,13,00,18.50
2019,08,10,13,01,18.40
2019,08,10,13,02,18.40
2019,08,10,13,03,18.30
2019,08,10,13,04,18.30
2019,08,10,13,05,18.30
2019,08,10,13,06,18.20
2019,08,10,13,07,18.20
2019,08,10,13,08,18.20
2019,08,10,13,09,18.10
2019,08,10,13,10,18.10
2019,08,10,13,11,18.10
2019,08,10,13,12,18.10
2019,08,10,13,13,18.00
2019,08,10,13,14,18.00
2019,08,10,13,15,18.00
2019,08,10,13,16,18.00
2019,08,10,13,17,18.00
2019,08,10,13,18,18.10
2019,08,10,13,19,18.10
2019,08,10,13,20,18.10
2019,08,10,13,21,18.10
2019,08,10,13,22,18.10
2019,08,10,13,23,18.10
2019,08,10,13,24,18.20
2019,08,10,13,25,18.20
2019,08,10,13,26,18.20
2019,08,10,13,27,18.20
2019,08,10,13,28,18.20
2019,08,10,13,29,18.20
2019,08,10,13,30,18.20
2019,08,10,13,31,18.20
2019,08,10,13,32,18.20
2019,08,10,13,33,18.20
2019,08,10,13,34,18.10
2019,08,10,13,35,18.10
2019,08,10,13,36,18.00
2019,08,10,13,37,18.00
2019,08,10,13,38,17.90
2019,08,10,13,39,17.90
2019,08,10,13,40,17.90
2019,08,10,13,41,17.90
2019,08,10,13,42,17.90
2019,08,10,13,43,17.90
2019,08,10,13,44,17.80
2019,08,10,13,45,17.80
2019,08,10,13,46,17.80
2019,08,10,13,47,17.80
2019,08,10,13,48,17.80
2019,08,10,13,49,17.80
2019,08,10,13,50,17.80
2019,08,10,13,51,17.80
2019,08,10,13,52,17.70
2019,08,10,13,53,17.70
2019,08,10,13,54,17.70
2019,08,10,13,55,17.70
2019,08,10,13,56,17.70
2019,08,10,13,57,17.70
2019,08,10,13,58,17.70
2019,08,10,13,59,17.70
2019,08,10,14,00,17.60
2019,08,10,14,01,17.60
2019,08,10,14,02,17.50
2019,08,10,14,03,17.40
2019,08,10,14,04,17.40
2019,08,10,14,05,17.30
2019,08,10,14,06,17.30
2019,08,10,14,07,17.20
2019,08,10,14,08,17.20
2019,08,10,14,09,17.20
2019,08,10,14,10,17.20
2019,08,10,14,11,17.20
2019,08,10,14,12,17.20
2019,08,10,14,13,17.20
2019,08,10,14,14,17.20
2019,08,10,14,15,17.20
2019,08,10,14,16,17.20
2019,08,10,14,17,17.20
2019,08,10,14,18,17.20
2019,08,10,14,19,17.20
2019,08,10,14,20,17.20
2019,08,10,14,21,17.20
2019,08,10,14,22,17.20
2019,08,10,14,23,17.10
2019,08,10,14,24,17.10
2019,08,10,14,25,17.10
2019,08,10,14,26,17.10
2019,08,10,14,27,17.10
2019,08,10,14,28,17.10
2019,08,10,14,29,17.10
2019,08,10,14,30,17.10
2019,08,10,14,31,17.10
2019,08,10,14,32,17.20
2019,08,10,14,33,17.20
2019,08,10,14,34,17.20
2019,08,10,14,35,17.20
2019,08,10,14,36,17.10
2019,08,10,14,37,17.10
2019,08,10,14,38,17.10
2019,08,10,14,39,17.10
2019,08,10,14,40,17.00
2019,08,10,14,41,17.00
2019,08,10,14,42,16.90
2019,08,10,14,43,16.90
2019,08,10,14,44,16.80
2019,08,10,14,45,16.70
2019,08,10,14,46,16.70
2019,08,10,14,47,16.70
2019,08,10,14,48,16.60
2019,08,10,14,49,16.50
2019,08,10,14,50,16.40
2019,08,10,14,51,16.30
2019,08,10,14,52,16.30
2019,08,10,14,53,16.20
2019,08,10,14,54,16.20
2019,08,10,14,55,16.20
2019,08,10,14,56,16.10
2019,08,10,14,57,16.10
2019,08,10,14,58,16.10
2019,08,10,14,59,16.00
2019,08,10,15,00,16.00
2019,08,10,15,01,16.10
2019,08,10,15,02,16.10
2019,08,10,15,03,16.10
2019,08,10,15,04,16.10
2019,08,10,15,05,16.10
2019,08,10,15,06,16.10
2019,08,10,15,07,16.10
2019,08,10,15,08,16.10
2019,08,10,15,09,16.20
2019,08,10,15,10,16.20
2019,08,10,15,11,16.20
2019,08,10,15,12,16.20
2019,08,10,15,13,16.20
2019,08,10,15,14,16.30
2019,08,10,15,15,16.30
2019,08,10,15,16,16.30
2019,08,10,15,17,16.30
2019,08,10,15,18,16.30
2019,08,10,15,19,16.30
2019,08,10,15,20,16.40
2019,08,10,15,21,16.40
2019,08,10,15,22,16.40
2019,08,10,15,23,16.40
2019,08,10,15,24,16.40
2019,08,10,15,25,16.40
2019,08,10,15,26,16.40
2019,08,10,15,27,16.40
2019,08,10,15,28,16.40
2019,08,10,15,29,16.40
2019,08,10,15,30,16.40
2019,08,10,15,31,16.40
2019,08,10,15,32,16.40
2019,08,10,15,33,16.30
2019,08,10,15,34,16.30
2019,08,10,15,35,16.30
2019,08,10,15,36,16.30
2019,08,10,15,37,16.20
2019,08,10,15,38,16.20
2019,08,10,15,39,16.20
2019,08,10,15,40,16.20
2019,08,10,15,41,16.20
2019,08,10,15,42,16.20
2019,08,10,15,43,16.20
2019,08,10,15,44,16.20
2019,08,10,15,45,16.20
2019,08,10,15,46,16.20
2019,08,10,15,47,16.20
2019,08,10,15,48,16.20
2019,08,10,15,49,16.20
2019,08,10,15,50,16.20
2019,08,10,15,51,16.20
2019,08,10,15,52,16.20
2019,08,10,15,53,16.20
2019,08,10,15,54,16.20
2019,08,10,15,55,16.20
2019,08,10,15,56,16.20
2019,08,10,15,57,16.20
2019,08,10,15,58,16.20
2019,08,10,15,59,16.20
2019,08,10,16,00,16.20
2019,08,10,16,01,16.20
2019,08,10,16,02,16.20
2019,08,10,16,03,16.20
2019,08,10,16,04,16.20
2019,08,10,16,05,16.20
2019,08,10,16,06,16.20
2019,08,10,16,07,16.20
2019,08,10,16,08,16.20
2019,08,10,16,09,16.20
2019,08,10,16,10,16.20
2019,08,10,16,11,16.20
2019,08,10,16,12,16.20
2019,08,10,16,13,16.20
2019,08,10,16,14,16.20
2019,08,10,16,15,16.20
2019,08,10,16,16,16.20
2019,08,10,16,17,16.20
2019,08,10,16,18,16.20
2019,08,10,16,19,16.20
2019,08,10,16,20,16.20
2019,08,10,16,21,16.20
2019,08,10,16,22,16.20
2019,08,10,16,23,16.20
2019,08,10,16,24,16.20
2019,08,10,16,25,16.20
2019,08,10,16,26,16.20
2019,08,10,16,27,16.20
2019,08,10,16,28,16.20
2019,08,10,16,29,16.20
2019,08,10,16,30,16.20
2019,08,10,16,31,16.20
2019,08,10,16,32,16.20
2019,08,10,16,33,16.20
2019,08,10,16,34,16.20
2019,08,10,16,35,16.20
2019,08,10,16,36,16.20
2019,08,10,16,37,16.20
2019,08,10,16,38,16.20
2019,08,10,16,39,16.20
2019,08,10,16,40,16.10
2019,08,10,16,41,16.10
2019,08,10,16,42,16.10
2019,08,10,16,43,16.10
2019,08,10,16,44,16.10
2019,08,10,16,45,16.10
2019,08,10,16,46,16.10
2019,08,10,16,47,16.10
2019,08,10,16,48,16.00
2019,08,10,16,49,16.00
2019,08,10,16,50,15.90
2019,08,10,16,51,15.90
2019,08,10,16,52,15.80
2019,08,10,16,53,15.80
2019,08,10,16,54,15.80
2019,08,10,16,55,15.70
2019,08,10,16,56,15.70
2019,08,10,16,57,15.70
2019,08,10,16,58,15.60
2019,08,10,16,59,15.60
2019,08,10,17,00,15.60
2019,08,10,17,01,15.60
2019,08,10,17,02,15.60
2019,08,10,17,03,15.60
2019,08,10,17,04,15.60
2019,08,10,17,05,15.50
2019,08,10,17,06,15.50
2019,08,10,17,07,15.50
2019,08,10,17,08,15.50
2019,08,10,17,09,15.50
2019,08,10,17,10,15.50
2019,08,10,17,11,15.50
2019,08,10,17,12,15.50
2019,08,10,17,13,15.50
2019,08,10,17,14,15.50
2019,08,10,17,15,15.50
2019,08,10,17,16,15.50
2019,08,10,17,17,15.60
2019,08,10,17,18,15.60
2019,08,10,17,19,15.60